Observations for Trim Market St
| Time | AQI | Temp °C | Hum % | Pres Pa | CO μg/m³ | H₂S μg/m³ | NO μg/m³ | NO₂ μg/m³ | O₃ μg/m³ | SO₂ μg/m³ | PM1 μg/m³ | PM2.5 μg/m³ | PM10 μg/m³ |
|---|---|---|---|---|---|---|---|---|---|---|---|---|---|
| Tuesday 18 August 2026 | |||||||||||||
| 20:28 | 2 | 16.3 | 80 | 2,147,483,647 | 0.19 | 0 | 2.11 | 13.42 | 62 | 0 | 1.43 | 3.55 | 8.67 |
| 20:27 | 2 | 16.3 | 79 | 2,147,483,647 | 0.23 | 0 | 2.13 | 26.5 | 59.29 | 0 | 2.14 | 3.08 | 5.82 |
| 20:25 | 2 | 16.3 | 79 | 2,147,483,647 | 0.25 | 0 | 2.14 | 16.47 | 59.11 | 0 | 2.14 | 3.09 | 6.39 |
| 20:19 | 2 | 16.4 | 79 | 2,147,483,647 | 0.24 | 0 | 2.09 | 22.21 | 57.39 | 0 | 2.14 | 3.1 | 7.53 |
| 20:17 | 2 | 16.4 | 79 | 2,147,483,647 | 0.41 | 0 | 2.09 | 19.8 | 58.95 | 0 | 1.43 | 3.11 | 6.38 |
| 20:15 | 2 | 16.4 | 79 | 2,147,483,647 | 0.24 | 0 | 2.1 | 22.12 | 59.41 | 0 | 2.14 | 3.59 | 7.53 |
| 20:12 | 2 | 16.5 | 78 | 2,147,483,647 | 0.2 | 0 | 2.07 | 30.17 | 54.53 | 0 | 2.85 | 4.55 | 7.53 |
| 20:06 | 2 | 16.5 | 78 | 2,147,483,647 | 0.2 | 0 | 2.07 | 21.17 | 59.33 | 0 | 2.14 | 4.58 | 8.69 |
| 20:05 | 2 | 16.6 | 78 | 2,147,483,647 | 0.22 | 0 | 2.05 | 20.84 | 60.82 | 0 | 3.56 | 5.06 | 9.27 |
| 20:04 | 2 | 16.6 | 78 | 2,147,483,647 | 0.25 | 0 | 2.05 | 23.64 | 62.23 | 0 | 3.56 | 5.06 | 9.85 |
| 20:03 | 2 | 16.6 | 78 | 2,147,483,647 | 0.25 | 0 | 2.06 | 20.19 | 63.72 | 0 | 2.85 | 3.64 | 6.95 |
| 20:02 | 2 | 16.6 | 78 | 2,147,483,647 | 0.29 | 0 | 2.05 | 26.09 | 58.37 | 0 | 2.14 | 4.6 | 7.53 |
| 20:01 | 2 | 16.6 | 78 | 2,147,483,647 | 0.45 | 0.92 | 2.05 | 38.46 | 49.58 | 0 | 2.14 | 3.18 | 5.78 |
| 20:00 | 2 | 16.6 | 77 | 2,147,483,647 | 0.36 | 0 | 2.05 | 28.92 | 57.51 | 0 | 3.56 | 5.56 | 11.61 |
| 19:59 | 2 | 16.6 | 77 | 2,147,483,647 | 0.35 | 0 | 2.05 | 24.27 | 60.8 | 0 | 2.85 | 4.61 | 8.7 |
| 19:58 | 2 | 16.7 | 77 | 2,147,483,647 | 0.3 | 0.04 | 2.04 | 26.03 | 61.39 | 0 | 2.14 | 4.14 | 7.53 |
| 19:57 | 2 | 16.7 | 77 | 2,147,483,647 | 0.29 | 0 | 2.03 | 20.33 | 60.99 | 0 | 2.14 | 3.19 | 5.78 |
| 19:56 | 2 | 16.7 | 77 | 2,147,483,647 | 0.43 | 0 | 2.04 | 25.83 | 59.66 | 0 | 2.85 | 5.1 | 9.28 |
| 19:55 | 2 | 16.7 | 77 | 2,147,483,647 | 0.4 | 0 | 2.03 | 16.04 | 61.08 | 0 | 4.28 | 7 | 12.79 |
| 19:54 | 2 | 16.7 | 77 | 2,147,483,647 | 0.46 | 0 | 2.06 | 27.68 | 58.09 | 0 | 4.28 | 5.58 | 9.87 |